sat.trackr.live / text

‹ back to catalog

STARLINK-2015

NORAD 47638 · 2021-012U

PAYLOAD ACTIVE UNKNOWN

§ Identity

Operator
Country
US
Launch date
2021-02-16
Launch site
AFETR
Launch vehicle
Mass (kg)
RCS (m²)

Purposes: comms

External: N2YO · Heavens-Above · Gunter

§ Orbital elements

Epoch: 2026-05-24T23:10:12.302688Z

Period
93.89 min
Inclination
53.1590°
Eccentricity
0.0001933
Mean motion
15.33647180 rev/d
Perigee alt
463.6 km
Apogee alt
466.3 km
Semi-major
6,843.1 km
B*
1.0893e-3
RAAN
337.5756°
Arg perigee
227.4131°
Mean anomaly
132.6708°
Rev number
29,304

§ Raw data

STARLINK-20151 47638U 21012U   26144.96542017  .00035736  00000+0  10893-2 0  99912 47638  53.1590 337.5756 0001933 227.4131 132.6708 15.33647180293048

JSON: /api/v1/satellites/47638 · /tle

For live sub-satellite position, see the globe view (requires WebGL).

§ Visibility from observer

Set your observer location to see the next 7 days of passes ≥ 10°. The values pass through the URL so the page stays shareable.

No JS? Fill the form by hand. The geolocation button needs JavaScript.